Weather in Staryye Yurkovichi

Russia / Bryansk Oblast     52°09′55″N   31°51′24″E
temp.,
°C
wind,
m/s
gust,
m/s
humid.,
%
clouds,
%
prec.,
mm/h
press.,
hPa
HPBL,
m
10 august, wed
wed1000:00+16n3580100 0.0 102287
03:00+14n358199 0.0 102291
06:00+13nne3686100 0.0 102298
09:00+19nne3563100 0.0 1022389
12:00+23nne5745100 0.0 10212032
15:00+24ne6643100 0.0 10202469
18:00+21nne5859100 0.1 10201002
21:00+18nne4973100 0.1 1021313
11 august, thu
thu1100:00+16nne4984100 0.0 1021209
03:00+16ne41086100 0.0 1020368
06:00+16nne51091100 0.0 1020420
09:00+19ene687894 0.0 1020547
12:00+23e676160 0.0 10201012
15:00+26ene785289 0.0 10201208
18:00+25ene68585 0.0 10201193
21:00+21ne512735 0.0 1020404
12 august, fri
fri1200:00+19ne5137456 0.0 1021334
03:00+16ne398699 0.7 1021180
06:00+15ne398789 0.5 1022201
09:00+21ene6966100 0.5 1021374
12:00+26ene6753100 0.0 1021794
15:00+26e5755100 0.0 1021914
18:00+25ne3558100 0.0 1021578
21:00+22ne376799 0.0 1021175
13 august, sat
sat1300:00+21ene41068100 0.0 1021248
03:00+20ene51267100 0.0 1020317
06:00+20ene51161100 0.0 1020313
09:00+20ene51158100 0.0 1020370
12:00+23ene6851100 0.0 1019499
15:00+24ene7115299 0.0 1018620
18:00+21ene6126188 0.0 1018440
21:00+19ne5127366 0.0 1017283
14 august, sun
sun1400:00+20ene51272100 0.1 1016373
03:00+18ne5128784 1.2 1015259
06:00+17ene5118894 0.3 1014218
09:00+21e5873100 0.3 1014310
12:00+27ese5650100 0.0 1013684
15:00+29ese474919 0.0 1013839
18:00+30e584899 0.0 1012834
21:00+23e4116837 0.0 1012228